EW5238 Weather Reports


Display with metric or nautical units.
time (UTC)temp
F
wind
direction
speed
MPH
gust
MPH
rain 1hr
in
rain 24hr
in
rain mn
in
humidity
%
barometer
mb
20260508045922 63 190 2.0 4.0 0.00 0.00 0.00 41 1012.3
20260508045423 63 190 2.0 4.0 0.00 0.00 0.00 41 1012.3
20260508044925 63 190 1.0 4.0 0.00 0.00 0.00 42 1012.4
20260508044431 63 190 0.0 3.0 0.00 0.00 0.00 46 1012.4
20260508043919 63 190 0.0 0.0 0.00 0.00 0.00 48 1012.4
20260508043420 63 190 0.0 0.0 0.00 0.00 0.00 52 1012.4
20260508042421 64 190 0.0 0.0 0.00 0.00 0.00 55 1012.4
20260508041920 64 190 0.0 0.0 0.00 0.00 0.00 57 1012.4
20260508041414 64 190 0.0 0.0 0.00 0.00 0.00 58 1012.6
20260508040913 64 190 0.0 0.0 0.00 0.00 0.00 61 1012.4
20260508040412 64 190 0.0 0.0 0.00 0.00 0.00 62 1012.4
20260508035907 64 190 0.0 3.0 0.00 0.00 0.00 62 1012.3
20260508035410 64 190 1.0 4.0 0.00 0.00 0.00 63 1011.9
20260508035141 64 190 0.0 4.0 0.00 0.00 0.00 63 1011.9
20260508034405 64 190 0.0 0.0 0.00 0.00 0.00 63 1012.1
20260508033905 64 190 0.0 2.0 0.00 0.00 0.00 64 1012.2
20260508033401 64 190 1.0 5.0 0.00 0.00 0.00 64 1012.1
20260508032902 64 190 2.0 5.0 0.00 0.00 0.00 65 1011.8
20260508032402 64 190 2.0 5.0 0.00 0.00 0.00 65 1011.7
20260508031900 64 190 1.0 4.0 0.00 0.00 0.00 65 1011.5
20260508031359 64 190 1.0 4.0 0.00 0.00 0.00 65 1011.4
20260508030901 64 190 2.0 8.0 0.00 0.00 0.00 66 1011.7
20260508030355 64 190 3.0 8.0 0.00 0.00 0.00 66 1011.6
20260508025922 64 190 2.0 6.0 0.00 0.00 0.00 66 1011.5
20260508024902 64 190 2.0 7.0 0.00 0.00 0.00 66 1011.6
20260508024633 64 190 2.0 4.0 0.00 0.00 0.00 65 1011.7
20260508023856 64 190 2.0 5.0 0.00 0.00 0.00 65 1011.9
20260508023402 64 190 1.0 5.0 0.00 0.00 0.00 66 1011.7
20260508022843 65 190 0.0 4.0 0.00 0.00 0.00 66 1011.4
20260508022353 65 190 0.0 0.0 0.00 0.00 0.00 65 1011.5
20260508021848 65 190 0.0 0.0 0.00 0.00 0.00 65 1011.6
20260508020845 65 190 0.0 1.0 0.00 0.00 0.00 65 1011.4
20260508020615 65 190 0.0 2.0 0.00 0.00 0.00 64 1011.8
20260508015843 65 190 0.0 2.0 0.00 0.00 0.00 64 1012.1
20260508015343 65 190 0.0 2.0 0.00 0.00 0.00 65 1012.2
20260508014845 65 190 0.0 3.0 0.00 0.00 0.00 65 1012.1
20260508014348 65 190 0.0 3.0 0.00 0.00 0.00 65 1012.1
20260508013847 65 190 1.0 4.0 0.00 0.00 0.00 64 1012.3
20260508013343 65 190 1.0 4.0 0.00 0.00 0.00 65 1012.4
20260508012845 65 190 1.0 4.0 0.00 0.00 0.00 65 1012.6
20260508012343 65 190 0.0 3.0 0.00 0.00 0.00 66 1012.6
20260508012117 66 190 0.0 0.0 0.00 0.00 0.00 67 1012.2
20260508011342 66 190 0.0 2.0 0.00 0.00 0.00 68 1011.9
20260508010837 66 190 0.0 2.0 0.00 0.00 0.00 68 1012.1
20260508010342 66 190 0.0 3.0 0.00 0.00 0.00 68 1012.2
20260508005838 66 190 1.0 4.0 0.00 0.00 0.00 68 1012.3
20260508005604 66 190 0.0 4.0 0.00 0.00 0.00 68 1012.2
20260508005101 67 190 0.0 2.0 0.00 0.00 0.00 68 1012.3
20260508004338 67 190 0.0 2.0 0.00 0.00 0.00 68 1012.3
20260508003825 67 190 0.0 2.0 0.00 0.00 0.00 69 1012.4
20260508003329 67 190 1.0 4.0 0.00 0.00 0.00 69 1012.3
20260508002816 67 190 1.0 5.0 0.00 0.00 0.00 69 1012.4
20260508002317 67 190 1.0 5.0 0.00 0.00 0.00 69 1012.4
20260508001816 67 190 1.0 5.0 0.00 0.00 0.00 69 1012.4
20260508001318 67 190 2.0 5.0 0.00 0.00 0.00 69 1012.4
20260508000818 67 190 2.0 6.0 0.00 0.00 0.00 69 1012.3
20260508000315 67 190 2.0 6.0 0.00 0.00 0.00 69 1012.2
20260507235813 67 190 1.0 5.0 0.00 0.00 0.00 69 1012.2
20260507235541 67 190 1.0 4.0 0.00 0.00 0.00 69 1012.3
20260507234812 67 190 1.0 4.0 0.00 0.00 0.00 69 1012.6
20260507234311 67 190 0.0 5.0 0.00 0.00 0.00 69 1012.9
20260507233809 67 190 1.0 6.0 0.00 0.00 0.00 69 1013.1
20260507233307 67 190 2.0 6.0 0.00 0.00 0.00 69 1013.1
20260507232807 67 190 2.0 5.0 0.00 0.00 0.00 69 1012.8
20260507232300 68 190 2.0 6.0 0.00 0.00 0.00 69 1012.7
20260507231802 68 190 2.0 6.0 0.00 0.00 0.00 69 1012.6
20260507231302 68 190 2.0 6.0 0.00 0.00 0.00 68 1012.6
20260507231032 68 190 2.0 7.0 0.00 0.00 0.00 68 1012.6
20260507230259 68 190 3.0 7.0 0.00 0.00 0.00 69 1012.7
20260507225523 69 190 3.0 7.0 0.00 0.00 0.00 68 1012.7
20260507224758 69 190 3.0 7.0 0.00 0.00 0.00 68 1012.7
20260507224539 69 190 3.0 7.0 0.00 0.00 0.00 68 1012.7
20260507223748 69 190 5.0 11.0 0.00 0.00 0.00 69 1012.8
20260507223241 69 190 5.0 11.0 0.00 0.00 0.00 68 1012.9
20260507222741 71 190 4.0 10.0 0.00 0.00 0.00 67 1013.0
20260507221742 72 190 4.0 8.0 0.00 0.00 0.00 67 1012.6
20260507221242 71 190 4.0 8.0 0.00 0.00 0.00 67 1012.4
20260507220744 71 190 3.0 8.0 0.00 0.00 0.00 67 1012.6
20260507220238 71 190 3.0 8.0 0.00 0.00 0.00 67 1012.3
20260507215238 71 190 3.0 8.0 0.00 0.00 0.00 67 1012.3
20260507214738 71 190 2.0 6.0 0.00 0.00 0.00 67 1011.9
20260507214237 71 190 2.0 5.0 0.00 0.00 0.00 66 1012.1
20260507213735 72 190 1.0 6.0 0.00 0.00 0.00 66 1012.1
20260507213230 72 190 1.0 6.0 0.00 0.00 0.00 66 1011.9
20260507212728 72 190 2.0 7.0 0.00 0.00 0.00 67 1011.9
20260507212226 72 190 2.0 7.0 0.00 0.00 0.00 65 1012.2
20260507211730 73 190 1.0 6.0 0.00 0.00 0.00 65 1012.4
20260507211228 73 190 2.0 6.0 0.00 0.00 0.00 65 1012.3
20260507210952 73 190 1.0 6.0 0.00 0.00 0.00 65 1012.6
20260507210218 73 190 2.0 6.0 0.00 0.00 0.00 65 1012.5
20260507205721 73 190 2.0 6.0 0.00 0.00 0.00 64 1012.5
20260507205222 73 190 3.0 9.0 0.00 0.00 0.00 65 1012.6
20260507205000 73 190 3.0 9.0 0.00 0.00 0.00 64 1012.5
20260507204220 74 190 3.0 7.0 0.00 0.00 0.00 63 1012.7
20260507203950 75 190 2.0 7.0 0.00 0.00 0.00 62 1012.7
20260507203213 76 190 2.0 7.0 0.00 0.00 0.00 63 1012.8
20260507202712 75 190 2.0 9.0 0.00 0.00 0.00 64 1013.0
20260507202219 75 190 2.0 9.0 0.00 0.00 0.00 64 1013.2
20260507201711 75 190 3.0 7.0 0.00 0.00 0.00 63 1013.3
20260507201217 75 190 3.0 7.0 0.00 0.00 0.00 64 1013.3
20260507200709 75 190 3.0 7.0 0.00 0.00 0.00 65 1013.5
20260507200208 74 190 2.0 7.0 0.00 0.00 0.00 64 1013.3
20260507195702 75 190 2.0 8.0 0.00 0.00 0.00 64 1013.6
20260507195204 75 190 3.0 9.0 0.00 0.00 0.00 65 1013.4
20260507194942 74 190 3.0 9.0 0.00 0.00 0.00 66 1013.3
20260507194204 73 190 2.0 8.0 0.00 0.00 0.00 66 1013.6
20260507193701 73 190 2.0 8.0 0.00 0.00 0.00 66 1013.4
20260507193201 73 190 3.0 8.0 0.00 0.00 0.00 66 1013.3
20260507192700 73 190 2.0 8.0 0.00 0.00 0.00 66 1013.3
20260507192201 73 190 3.0 6.0 0.00 0.00 0.00 66 1013.3
20260507191700 73 190 3.0 8.0 0.00 0.00 0.00 65 1013.5
20260507191203 72 190 2.0 8.0 0.00 0.00 0.00 66 1013.6
20260507190659 72 190 2.0 8.0 0.00 0.00 0.00 67 1013.6
20260507190154 71 190 3.0 7.0 0.00 0.00 0.00 67 1013.7
20260507185656 70 190 3.0 8.0 0.00 0.00 0.00 67 1013.8
20260507185154 71 190 2.0 8.0 0.00 0.00 0.00 67 1013.9
20260507184656 71 190 1.0 6.0 0.00 0.00 0.00 67 1013.6
20260507184155 70 190 1.0 6.0 0.00 0.00 0.00 67 1013.9
20260507183654 70 190 2.0 6.0 0.00 0.00 0.00 67 1013.9
20260507183154 70 190 2.0 7.0 0.00 0.00 0.00 67 1014.2
20260507182654 70 190 2.0 7.0 0.00 0.00 0.00 67 1014.3
20260507182155 70 190 2.0 7.0 0.00 0.00 0.00 68 1014.5
20260507181659 70 190 2.0 7.0 0.00 0.00 0.00 67 1014.5
20260507181426 69 190 3.0 9.0 0.00 0.00 0.00 68 1014.8
20260507180926 69 190 3.0 9.0 0.00 0.00 0.00 68 1015.1
20260507180426 69 190 2.0 8.0 0.00 0.00 0.00 68 1014.9
20260507175701 69 190 4.0 12.0 0.00 0.00 0.00 67 1015.1
20260507175152 68 190 5.0 12.0 0.00 0.00 0.00 68 1015.2
20260507174657 68 190 5.0 11.0 0.00 0.00 0.00 68 1015.4
20260507174157 69 190 3.0 7.0 0.00 0.00 0.00 67 1015.3
20260507173646 68 190 2.0 7.0 0.00 0.00 0.00 67 1015.2
20260507173146 68 190 2.0 8.0 0.00 0.00 0.00 66 1015.2
20260507172911 67 190 3.0 8.0 0.00 0.00 0.00 67 1015.3
20260507172408 67 190 3.0 8.0 0.00 0.00 0.00 66 1015.3
20260507171639 67 190 2.0 8.0 0.00 0.00 0.00 64 1015.2
20260507171139 66 190 3.0 8.0 0.00 0.00 0.00 66 1015.2
20260507170908 65 190 3.0 6.0 0.00 0.00 0.00 66 1015.3
20260507170137 66 190 3.0 7.0 0.00 0.00 0.00 66 1015.4
20260507165910 66 190 3.0 9.0 0.00 0.00 0.00 62 1015.5
20260507165140 65 190 4.0 10.0 0.00 0.00 0.00 61 1015.6
20260507164635 65 190 5.0 10.0 0.00 0.00 0.00 65 1015.6
20260507164134 65 190 5.0 11.0 0.00 0.00 0.00 64 1015.4
20260507163636 65 190 5.0 11.0 0.00 0.00 0.00 63 1015.5
20260507163406 65 190 5.0 9.0 0.00 0.00 0.00 62 1015.6
20260507162639 65 190 4.0 9.0 0.00 0.00 0.00 59 1015.5
20260507162406 65 190 3.0 9.0 0.00 0.00 0.00 61 1015.5
20260507162138 65 190 3.0 9.0 0.00 0.00 0.00 61 1015.5
20260507161629 65 190 3.0 10.0 0.00 0.00 0.00 54 1015.5
20260507161134 64 190 4.0 12.0 0.00 0.00 0.00 59 1015.6
20260507160900 65 190 4.0 12.0 0.00 0.00 0.00 58 1015.5
20260507160129 65 190 3.0 9.0 0.00 0.00 0.00 56 1015.5
20260507155631 65 190 4.0 8.0 0.00 0.00 0.00 56 1015.3
20260507154901 65 190 2.0 7.0 0.00 0.00 0.00 51 1015.0
20260507154409 64 190 4.0 10.0 0.00 0.00 0.00 52 1015.0
20260507153627 64 190 5.0 10.0 0.00 0.00 0.00 50 1014.9
20260507153131 64 190 4.0 9.0 0.00 0.00 0.00 51 1014.8
20260507152624 63 190 3.0 8.0 0.00 0.00 0.00 39 1014.8
20260507152119 63 190 4.0 10.0 0.00 0.00 0.00 35 1014.5
20260507151116 62 190 4.0 8.0 0.00 0.00 0.00 26 1013.9
20260507150615 61 190 4.0 10.0 0.00 0.00 0.00 20 1014.0
20260507150107 61 190 4.0 10.0 0.00 0.00 0.00 15 1014.0
20260507145608 61 190 4.0 9.0 0.00 0.00 0.00 7 1014.2
20260507145114 60 190 4.0 7.0 0.00 0.00 0.00 4 1014.4
20260507144609 60 190 3.0 6.0 0.00 0.00 0.00 1 1014.7
20260507144105 60 190 3.0 6.0 0.00 0.00 0.00 5 1015.1
20260507143607 60 190 3.0 7.0 0.00 0.00 0.00 1 1015.3
20260507143103 60 190 3.0 7.0 0.00 0.00 0.00 1 1015.3
20260507142606 60 190 3.0 9.0 0.00 0.00 0.00 2 1015.3
20260507142104 60 190 4.0 9.0 0.00 0.00 0.00 4 1015.2
20260507141600 60 190 3.0 9.0 0.00 0.00 0.00 1 1015.3
20260507141100 60 190 3.0 9.0 0.00 0.00 0.00 1 1015.1
20260507140830 0 0.0 0.0 0.00 0.00 0.00 1015.0
20260507135956 0 0.0 0.0 0.00 0.00 0.00 1015.0
20260507135719 0 0.0 0.0 0.00 0.00 0.00 1015.0
20260507134946 0 0.0 0.0 0.00 0.00 0.00 1015.1
20260507134359 0 0.0 0.0 0.00 0.00 0.00 1015.1
20260507133902 0 0.0 0.0 0.00 0.00 0.00 1015.1
20260507133354 0 0.0 0.0 0.00 0.00 0.00 1014.9
20260507133026 0 0.0 0.0 0.00 0.00 0.00 1014.8
20260507132158 0 0.0 0.0 0.00 0.00 0.00 1014.7
20260507131701 0 0.0 0.0 0.00 0.00 0.00 1014.7
20260507131155 0 0.0 0.0 0.00 0.00 0.00 1014.6
20260507130922 0 0.0 0.0 0.00 0.00 0.00 1014.9
20260507130150 0 0.0 0.0 0.00 0.00 0.00 1014.8
20260507125835 0 0.0 0.0 0.00 0.00 0.00 1014.8
20260507125058 0 0.0 0.0 0.00 0.00 0.00 1014.6
20260507124457 0 0.0 0.0 0.00 0.00 0.00 1014.6
20260507123953 0 0.0 0.0 0.00 0.00 0.00 1014.4
20260507123358 0 0.0 0.0 0.00 0.00 0.00 1014.2
20260507122249 0 0.0 0.0 0.00 0.00 0.00 1014.3
20260507121654 0 0.0 0.0 0.00 0.00 0.00 1014.2
20260507121154 0 0.0 0.0 0.00 0.00 0.00 1014.3
20260507120830 0 0.0 0.0 0.00 0.00 0.00 1013.9
20260507120100 0 0.0 0.0 0.00 0.00 0.00 1013.9
20260507115233 61 0.0 0.0 0.00 0.00 0.00 1 1013.7
20260507114003 61 190 3.0 7.0 0.00 0.00 0.00 1 1013.2
20260507113457 60 190 2.0 7.0 0.00 0.00 0.00 1 1013.0
20260507112957 62 190 3.0 6.0 0.00 0.00 0.00 1 1013.4
20260507112456 62 190 3.0 7.0 0.00 0.00 0.00 1 1013.4
20260507111956 62 190 4.0 7.0 0.00 0.00 0.00 1 1013.7
20260507110450 62 190 2.0 7.0 0.00 0.00 0.00 1 1013.1
20260507105950 62 190 3.0 8.0 0.00 0.00 0.00 1 1013.1
20260507105450 62 190 3.0 8.0 0.00 0.00 0.00 1 1013.0
20260507104950 62 190 2.0 5.0 0.00 0.00 0.00 1 1013.6
20260507104452 62 190 2.0 9.0 0.00 0.00 0.00 1 1013.3
20260507103949 62 190 3.0 9.0 0.00 0.00 0.00 1 1013.2
20260507103446 62 190 2.0 6.0 0.00 0.00 0.00 1 1013.3
20260507102447 62 190 0.0 5.0 0.00 0.00 0.00 1 1013.2
20260507101945 62 190 0.0 4.0 0.00 0.00 0.00 1 1012.9
20260507101444 62 190 1.0 5.0 0.00 0.00 0.00 1 1012.8
20260507100939 62 190 1.0 6.0 0.00 0.00 0.00 1 1012.5
20260507100435 62 190 1.0 6.0 0.00 0.00 0.00 1 1012.4
20260507095935 62 190 1.0 6.0 0.00 0.00 0.00 1 1012.6
20260507095433 62 190 1.0 6.0 0.00 0.00 0.00 1 1012.6
20260507094930 62 190 1.0 5.0 0.00 0.00 0.00 1 1012.4
20260507094428 62 190 2.0 6.0 0.00 0.00 0.00 1 1012.3
20260507093932 62 190 3.0 7.0 0.00 0.00 0.00 1 1012.4
20260507093429 62 190 3.0 7.0 0.00 0.00 0.00 1 1012.3
20260507092927 62 190 2.0 7.0 0.00 0.00 0.00 1 1011.9
20260507092424 62 190 2.0 5.0 0.00 0.00 0.00 1 1012.1
20260507091924 62 190 1.0 5.0 0.00 0.00 0.00 1 1012.2
20260507091422 62 190 1.0 5.0 0.00 0.00 0.00 1 1012.2
20260507090922 62 190 1.0 5.0 0.00 0.00 0.00 1 1012.2
20260507090421 62 190 1.0 3.0 0.00 0.00 0.00 1 1011.8
20260507085921 62 190 1.0 4.0 0.00 0.00 0.00 1 1011.8
20260507085421 62 190 1.0 4.0 0.00 0.00 0.00 1 1011.5
20260507084917 62 190 1.0 4.0 0.00 0.00 0.00 1 1011.7
20260507084417 62 190 1.0 5.0 0.00 0.00 0.00 1 1011.8
20260507083917 62 190 2.0 6.0 0.00 0.00 0.00 1 1011.4
20260507083418 62 190 2.0 6.0 0.00 0.00 0.00 1 1011.5
20260507083150 62 190 2.0 6.0 0.00 0.00 0.00 1 1011.7
20260507082412 62 190 1.0 4.0 0.00 0.00 0.00 1 1011.5
20260507081913 62 190 1.0 4.0 0.00 0.00 0.00 1 1011.8
20260507081406 62 190 1.0 5.0 0.00 0.00 0.00 3 1012.1
20260507080910 62 190 1.0 5.0 0.00 0.00 0.00 2 1012.2
20260507080409 62 190 1.0 4.0 0.00 0.00 0.00 4 1012.1
20260507080140 62 190 1.0 3.0 0.00 0.00 0.00 5 1012.2
20260507075408 62 190 1.0 6.0 0.00 0.00 0.00 5 1012.1
20260507074903 62 190 2.0 6.0 0.00 0.00 0.00 7 1011.9
20260507074408 62 190 2.0 5.0 0.00 0.00 0.00 6 1012.2
20260507074136 62 190 2.0 5.0 0.00 0.00 0.00 9 1012.1
20260507073403 62 190 2.0 6.0 0.00 0.00 0.00 11 1011.6
20260507072903 62 190 2.0 6.0 0.00 0.00 0.00 11 1011.9
20260507072636 62 190 2.0 5.0 0.00 0.00 0.00 11 1012.2
20260507071902 62 190 1.0 4.0 0.00 0.00 0.00 11 1012.2
20260507071400 62 190 1.0 4.0 0.00 0.00 0.00 11 1011.8
20260507070902 62 190 1.0 4.0 0.00 0.00 0.00 11 1012.7
20260507070632 62 190 2.0 4.0 0.00 0.00 0.00 12 1012.4
20260507065903 62 190 2.0 4.0 0.00 0.00 0.00 14 1012.3
20260507065355 62 190 2.0 5.0 0.00 0.00 0.00 15 1012.1
20260507064856 62 190 2.0 6.0 0.00 0.00 0.00 16 1012.5
20260507064353 62 190 2.0 6.0 0.00 0.00 0.00 17 1012.5
20260507063859 62 190 2.0 6.0 0.00 0.00 0.00 17 1012.3
20260507063354 62 190 1.0 5.0 0.00 0.00 0.00 17 1012.4
20260507063132 62 190 2.0 7.0 0.00 0.00 0.00 18 1012.7
20260507062353 62 190 3.0 7.0 0.00 0.00 0.00 20 1012.4
20260507061855 62 190 2.0 7.0 0.00 0.00 0.00 21 1013.0
20260507061355 62 190 3.0 7.0 0.00 0.00 0.00 21 1012.7
20260507060855 62 190 3.0 7.0 0.00 0.00 0.00 22 1012.4
20260507060351 62 190 2.0 7.0 0.00 0.00 0.00 23 1013.0
20260507055851 62 190 3.0 8.0 0.00 0.00 0.00 24 1012.1
20260507055351 62 190 4.0 8.0 0.00 0.00 0.00 25 1012.5
20260507055122 62 190 3.0 8.0 0.00 0.00 0.00 28 1012.8
20260507054623 63 190 3.0 7.0 0.00 0.00 0.00 29 1012.1
20260507053856 63 190 3.0 6.0 0.00 0.00 0.00 30 1012.7
20260507053351 63 190 2.0 6.0 0.00 0.00 0.00 31 1012.4
20260507052852 63 190 2.0 5.0 0.00 0.00 0.00 31 1012.4
20260507052348 63 190 3.0 7.0 0.00 0.00 0.00 32 1011.8
20260507051853 63 190 3.0 7.0 0.00 0.00 0.00 33 1012.1
20260507051622 63 190 2.0 6.0 0.00 0.00 0.00 33 1012.2
20260507051124 63 190 2.0 6.0 0.00 0.00 0.00 34 1011.8
20260507050346 63 190 2.0 7.0 0.00 0.00 0.00 35 1011.9